Tracking 19219 objects as of 22-Jul-2018
HD Live streaming from Space Station
objects crossing your sky now

FENGYUN 1C DEB

Track FENGYUN 1C DEB now!
10-day predictions


NORAD ID: 36141
Int'l Code: 1999-025DRN
Perigee: 792.4 km
Apogee: 1,001.3 km
Inclination: 98.5 °
Period: 102.8 minutes
Semi major axis: 7267 km
RCS: 0.0157 m2 (small)
Launch date: May 10, 1999
Source: People's Republic of China (PRC)
Launch site: Taiyaun Space Center, China (TSC)

Note: This is SATELLITE DEBRIS
aabbcc
Your satellite tracking list
Your tracking list is empty




NASA's NSSDC Master Catalog

Two Line Element Set (TLE):
1 36141U 99025DRN 18202.34866062  .00000862  00000-0  54934-3 0  9992
2 36141  98.5021 251.9474 0143724 328.1440  31.1093 14.01174507476810
Source of the keplerian elements: AFSPC